Content
SEND FEEDBACK

Daily
Averages
Monthly
Summary
Canada

VANCOUVER - UNIVERSITY, BRITISH COLUMBIA


Home > North America > Canada > British Columbia
Elevation: 249 feet     Latitude: 49 15N     Longitude: 123 15W

WEATHER
 
SELECT A DAY
Number of Records: 199,605;   Date Range: 1/1/95 - 12/17/14
 
SHARE

PRINT THIS DATA

[ ← Previous Day ]
WEATHER ALMANAC - JANUARY 24, 2013
[ Next Day → ]
[ °C ]   °F
Weather ElementAverageHighLow
Temperature40.8 °F44.6 °F (12:00 pm)37.4 °F (8:00 am)
Dewpoint30.9 °F39.2 °F (3:00 am) (7:00 pm)
Humidity88.6 %100 % (6:00 am)75 % (4:00 pm)
Wind Speed8.6 mph17.3 mph (8:00 pm)
Weather ElementAverage
Visibility8.7 mi
Wind DirectionESE (106.7 °)

Weather ElementTotal
Precipitation---
Heating Degree Days24 (Base 65)
Averaged from 33 records on January 24, 2013
WEATHER CONDITIONS BREAKOUT
WIND DIRECTION BREAKOUT
WEATHER BY HOUR - JANUARY 24, 2013
[ °C ]   °F
Local TimeTemperatureDewpointHumidityBarometerVisibilityWind DirectionWind SpeedGust SpeedPrecipitationEventsConditions
12:21 AM39.2 °F0.0 °F6.0 miWNW (300°)3.5 mphMostly Cloudy
1:00 AM39.2 °F37.4 °F93 %30.12 in6.0 miWNW (290°)2.3 mphMostly Cloudy
1:27 AM39.2 °F0.0 °F4.0 miCalmOvercast
2:00 AM39.2 °F37.4 °F93 %30.14 in4.0 miCalmOvercast
3:00 AM41.0 °F39.2 °F93 %30.16 in4.0 miSouth (180°)2.3 mphOvercast
4:00 AM40.0 °F39.0 °F93 %30.17 in4.0 miSouth (170°)2.3 mphMist
4:00 AM41.0 °F39.2 °F93 %30.17 in4.0 miSouth (180°)2.3 mphOvercast
5:00 AM39.2 °F37.4 °F93 %30.17 in4.0 miEast (90°)4.6 mphOvercast
5:48 AM39.2 °F0.0 °F4.0 miESE (110°)4.6 mphRainLight Rain
6:00 AM39.2 °F39.2 °F100 %30.19 in4.0 miESE (110°)4.6 mphRainLight Rain
7:00 AM39.2 °F37.4 °F93 %30.17 in10.0 miEast (100°)8.1 mphOvercast
8:00 AM37.4 °F35.6 °F93 %30.18 in15.0 miEast (90°)11.5 mphOvercast
9:00 AM41.0 °F39.2 °F93 %30.18 in15.0 miEast (100°)11.5 mphOvercast
10:00 AM42.0 °F39.0 °F85 %30.18 in15.0 miESE (110°)11.5 mphPartly Cloudy
10:00 AM42.8 °F39.2 °F87 %30.18 in15.0 miESE (110°)11.5 mphOvercast
11:00 AM42.8 °F39.2 °F87 %30.19 in15.0 miEast (90°)10.4 mphOvercast
12:00 PM44.6 °F39.2 °F81 %30.15 in15.0 miEast (100°)11.5 mphOvercast
1:00 PM44.6 °F37.4 °F76 %30.12 in15.0 miEast (90°)11.5 mphOvercast
2:00 PM42.8 °F35.6 °F76 %30.08 in15.0 miEast (80°)11.5 mphOvercast
3:00 PM42.8 °F37.4 °F81 %30.09 in15.0 miESE (110°)5.8 mphOvercast
3:18 PM42.8 °F0.0 °F15.0 miEast (90°)4.6 mphRainLight Rain
3:56 PM42.8 °F0.0 °F6.0 miEast (80°)13.8 mphRainLight Rain
4:00 PM42.0 °F37.0 °F75 %30.10 in6.0 miEast (90°)8.1 mphRainLight Rain
4:00 PM42.8 °F37.4 °F81 %30.10 in6.0 miEast (100°)6.9 mphRainLight Rain
5:00 PM41.0 °F37.4 °F87 %30.09 in5.0 miEast (90°)8.1 mphRainLight Rain
5:20 PM41.0 °F0.0 °F8.0 miENE (70°)10.4 mphRainLight Rain
6:00 PM39.2 °F37.4 °F93 %30.08 in8.0 miEast (80°)12.7 mphRainLight Rain
7:00 PM39.2 °F37.4 °F93 %30.06 in8.0 miEast (80°)15.0 mphRainLight Rain
8:00 PM39.2 °F35.6 °F87 %30.05 in8.0 miEast (80°)17.3 mphRainLight Rain
9:00 PM39.2 °F37.4 °F93 %30.04 in8.0 miEast (90°)13.8 mphRainLight Rain
10:00 PM40.0 °F37.0 °F86 %30.03 in7.0 miEast (90°)13.8 mphRainLight Rain
10:00 PM39.2 °F37.4 °F93 %30.03 in8.0 miEast (90°)15.0 mphRainLight Rain
11:00 PM41.0 °F39.2 °F93 %30.03 in6.0 miEast (80°)11.5 mphRainLight Rain
Hourly data recorded from CYVR, located miles away from Vancouver - University, British Columbia







STORIES FROM OUR PARTNERS